Chester, MD

2:30 PM EDT on August 29, 2016 (GMT -0400)
Stevensville

Weather History for KW29 - October, 2012

Change the Weather History Date:

Monday, October 29, 2012

  Actual Average (KESN) Record (KESN)
Temperature  
Mean Temperature 50 °F -  
Max Temperature 53 °F 65 °F 77 °F (1971)
Min Temperature 46 °F 44 °F 28 °F (1976)
Degree Days  
Heating Degree Days 16    
Moisture  
Dew Point 50 °F    
Average Humidity 99    
Maximum Humidity 100    
Minimum Humidity 94    
Precipitation  
Precipitation 0.00 in - - ()
Sea Level Pressure  
Sea Level Pressure 29.03 in    
Wind  
Wind Speed 21 mph (NW)    
Max Wind Speed 45 mph    
Max Gust Speed 59 mph    
Visibility 3 miles    
Events      
Averages and records for this station are not official NWS values.
T = Trace of Precipitation, MM = Missing Value Source: NWS Daily Summary

Daily Weather History Graph

Daily Weather History Graph

Search for Another Location

Airport or City:

Trip Planner

Search our weather history database for the weather conditions in past years. The results will help you decide how hot, cold, wet, or windy it might be!

Date:

Astronomy

Oct. 29, 2012 Rise Set
Actual Time 7:29 AM EDT 6:07 PM EDT
Civil Twilight 7:02 AM EDT 6:35 PM EDT
Nautical Twilight 6:30 AM EDT 7:06 PM EDT
Astronomical Twilight 5:59 AM EDT 7:37 PM EDT
Moon 5:58 PM EDT 7:17 AM EDT
Length of Visible Light 11h 32m
Length of Day
10h 37m
Full, 100% of the Moon is Illuminated
Oct 29
Full
Oct 29
Full
Nov 6
Last Quarter
Nov 13
New
Nov 20
First Quarter

Hourly Weather History & Observations

Time (EDT) Temp. Windchill Dew Point Humidity Pressure Visibility Wind Dir Wind Speed Gust Speed Precip Events Conditions
12:13 AM 53.6 °F - 53.6 °F 100% 29.54 in 10.0 mi NNE 13.8 mph 24.2 mph N/A   Mostly Cloudy
12:35 AM 53.6 °F - 51.8 °F 94% 29.53 in 10.0 mi NNE 15.0 mph 21.9 mph N/A   Mostly Cloudy
12:56 AM 53.6 °F - 51.8 °F 94% 29.52 in 10.0 mi NNE 10.4 mph 24.2 mph N/A   Mostly Cloudy
1:39 AM 53.6 °F - 51.8 °F 94% 29.51 in 7.0 mi NNE 10.4 mph 27.6 mph N/A   Mostly Cloudy
2:00 AM 53.6 °F - 51.8 °F 94% 29.50 in 7.0 mi NNE 13.8 mph 25.3 mph N/A   Overcast
2:22 AM 53.6 °F - 51.8 °F 94% 29.49 in 7.0 mi North 11.5 mph 21.9 mph N/A   Overcast
2:43 AM 53.6 °F - 51.8 °F 94% 29.48 in 5.0 mi NNE 12.7 mph 24.2 mph N/A   Overcast
3:04 AM 53.6 °F - 51.8 °F 94% 29.48 in 7.0 mi North 12.7 mph 21.9 mph N/A   Overcast
3:25 AM 53.6 °F - 51.8 °F 94% 29.48 in 5.0 mi North 12.7 mph 20.7 mph N/A   Overcast
3:47 AM 51.8 °F - 51.8 °F 100% 29.47 in 7.0 mi North 11.5 mph 19.6 mph N/A   Overcast
4:08 AM 51.8 °F - 51.8 °F 100% 29.47 in 5.0 mi North 11.5 mph 23.0 mph N/A   Overcast
4:51 AM 51.8 °F - 51.8 °F 100% 29.45 in 4.0 mi North 18.4 mph 21.9 mph N/A   Overcast
5:12 AM 51.8 °F - 51.8 °F 100% 29.44 in 4.0 mi North 17.3 mph 27.6 mph N/A   Overcast
5:55 AM 51.8 °F - 51.8 °F 100% 29.42 in 3.0 mi North 19.6 mph 34.5 mph N/A   Overcast
6:37 AM 51.8 °F - 51.8 °F 100% 29.41 in 2.5 mi NNW 21.9 mph 29.9 mph N/A   Overcast
6:59 AM 51.8 °F - 51.8 °F 100% 29.40 in 2.0 mi NNW 20.7 mph 31.1 mph N/A   Overcast
7:20 AM 51.8 °F - 51.8 °F 100% 29.40 in 2.0 mi NNW 23.0 mph 31.1 mph N/A   Overcast
7:41 AM 51.8 °F - 51.8 °F 100% 29.40 in 2.5 mi NNW 18.4 mph 29.9 mph N/A   Overcast
8:02 AM 51.8 °F - 51.8 °F 100% 29.39 in 2.5 mi NNW 19.6 mph 31.1 mph N/A   Overcast
8:24 AM 51.8 °F - 51.8 °F 100% 29.37 in 2.0 mi NNW 19.6 mph 29.9 mph N/A   Overcast
8:45 AM 51.8 °F - 51.8 °F 100% 29.35 in 3.0 mi NNW 20.7 mph 29.9 mph N/A   Overcast
9:06 AM 51.8 °F - 51.8 °F 100% 29.32 in 3.0 mi NNW 23.0 mph 33.4 mph N/A   Overcast
9:27 AM 51.8 °F - 51.8 °F 100% 29.30 in 3.0 mi NNW 25.3 mph 34.5 mph N/A   Overcast
9:49 AM 51.8 °F - 51.8 °F 100% 29.27 in 3.0 mi NNW 25.3 mph 34.5 mph N/A   Overcast
10:10 AM 51.8 °F - 51.8 °F 100% 29.24 in 2.5 mi NW 21.9 mph 33.4 mph N/A   Overcast
10:31 AM 51.8 °F - 51.8 °F 100% 29.20 in 2.0 mi NW 26.5 mph 36.8 mph N/A   Overcast
10:52 AM 51.8 °F - 51.8 °F 100% 29.19 in 2.5 mi NW 23.0 mph 33.4 mph N/A   Overcast
11:35 AM 51.8 °F - 51.8 °F 100% 29.16 in 2.0 mi NW 20.7 mph 36.8 mph N/A   Overcast
11:56 AM 51.8 °F - 51.8 °F 100% 29.12 in 2.5 mi NW 28.8 mph 39.1 mph N/A   Overcast
12:42 PM 51.8 °F - 51.8 °F 100% 29.05 in 3.0 mi NW 31.1 mph 48.3 mph N/A   Overcast
1:07 PM 51.8 °F - 51.8 °F 100% 29.01 in 2.0 mi NW 31.1 mph 40.3 mph N/A   Overcast
1:28 PM 51.8 °F - 51.8 °F 100% 28.99 in 2.0 mi NW 31.1 mph 46.0 mph N/A   Overcast
1:50 PM 51.8 °F - 51.8 °F 100% 28.96 in 2.0 mi NW 29.9 mph 51.8 mph N/A   Overcast
2:11 PM 50.0 °F - 50.0 °F 100% 28.94 in 2.5 mi NW 32.2 mph 42.6 mph N/A   Overcast
2:32 PM 50.0 °F - 50.0 °F 100% 28.90 in 2.5 mi WNW 34.5 mph 44.9 mph N/A   Overcast
3:36 PM 50.0 °F - 50.0 °F 100% 28.81 in 2.5 mi WNW 32.2 mph 47.2 mph N/A   Overcast
3:57 PM 50.0 °F - 50.0 °F 100% 28.77 in 2.0 mi WNW 35.7 mph 48.3 mph N/A   Overcast
4:18 PM 50.0 °F - 50.0 °F 100% 28.74 in 2.0 mi WNW 35.7 mph 47.2 mph N/A   Overcast
4:40 PM 50.0 °F - 50.0 °F 100% 28.73 in 2.0 mi WNW 34.5 mph 52.9 mph N/A   Overcast
5:01 PM 50.0 °F - 50.0 °F 100% 28.67 in 2.0 mi WNW 38.0 mph 51.8 mph N/A   Overcast
6:05 PM 50.0 °F - 50.0 °F 100% 28.62 in 1.8 mi WNW 31.1 mph 42.6 mph N/A   Overcast
6:26 PM 50.0 °F - 50.0 °F 100% 28.57 in 1.8 mi WNW 38.0 mph 48.3 mph N/A   Overcast
6:47 PM 48.2 °F - 48.2 °F 100% 28.56 in 1.8 mi WNW 35.7 mph 51.8 mph N/A   Overcast
7:09 PM 48.2 °F - 48.2 °F 100% 28.53 in 1.5 mi WNW 39.1 mph 52.9 mph N/A   Overcast
7:30 PM 48.2 °F - 48.2 °F 100% 28.53 in 2.5 mi WNW 29.9 mph 46.0 mph N/A   Overcast
7:51 PM 48.2 °F - 48.2 °F 100% 28.51 in 2.0 mi West 32.2 mph 48.3 mph N/A   Overcast
8:12 PM 48.2 °F - 48.2 °F 100% 28.53 in 2.0 mi West 29.9 mph 43.7 mph N/A   Overcast
8:33 PM 48.2 °F - 48.2 °F 100% 28.55 in 2.0 mi West 26.5 mph 38.0 mph N/A   Overcast
8:55 PM 48.2 °F - 48.2 °F 100% 28.54 in 2.5 mi West 27.6 mph 40.3 mph N/A   Overcast
9:16 PM 46.4 °F 35.3 °F 46.4 °F 100% 28.45 in 2.0 mi WNW 44.9 mph 57.5 mph N/A   Overcast
9:37 PM 46.4 °F 36.5 °F 46.4 °F 100% 28.47 in 2.0 mi WNW 34.5 mph 58.7 mph N/A   Overcast
9:58 PM 46.4 °F 35.6 °F 46.4 °F 100% 28.47 in 1.8 mi WNW 42.6 mph 54.1 mph N/A   Overcast
10:20 PM 46.4 °F 35.8 °F 46.4 °F 100% 28.47 in 2.5 mi WNW 40.3 mph 50.6 mph N/A   Overcast
10:41 PM 46.4 °F 36.7 °F 46.4 °F 100% 28.49 in 2.5 mi West 33.4 mph 48.3 mph N/A   Overcast
11:02 PM 46.4 °F 37.5 °F 46.4 °F 100% 28.50 in 4.0 mi West 27.6 mph 46.0 mph N/A   Overcast
11:23 PM 46.4 °F 37.9 °F 46.4 °F 100% 28.53 in 4.0 mi West 25.3 mph 42.6 mph N/A   Overcast
11:45 PM 46.4 °F 36.9 °F 46.4 °F 100% 28.55 in 4.0 mi WSW 32.2 mph 39.1 mph N/A   Overcast